VIR86 KLAS-EGCC

Flight info

Callsign VIR86
Flight time N/A
Altitude 35000
Route RATPK3 FRNCK DCT MLF DCT MTU DCT DDY J107 DPR DCT GFK DCT GABOV DCT DUSMA/N0495F370 DCT MCKEE/M085F370 DCT URTAK DCT 59N050W 59N040W 59N030W 58N020W DCT SUNOT/N0486F370 DCT KESIX DCT MIMKU DCT MAKUX
Aircraft A35K/H-SDE2E3GHIJ3J4J5LM1ORWXY/LB1D1

Departure

Time N/A
Airport Harry Reid International Airport (KLAS)

Arrival

Time 2026-05-04 13:21
Airport Manchester Airport (EGCC)
Time Latitude Longitude Altitude Speed Heading
2026-05-04 13:15 53.24436 -2.62761 4214 ft 217 kts 115°
2026-05-04 13:15 53.23803 -2.60540 4105 ft 209 kts 115°
2026-05-04 13:15 53.23177 -2.58344 4007 ft 209 kts 115°
2026-05-04 13:16 53.22564 -2.56147 3747 ft 207 kts 112°
2026-05-04 13:16 53.22550 -2.53781 3666 ft 208 kts 73°
2026-05-04 13:16 53.23112 -2.51571 3453 ft 208 kts 57°
2026-05-04 13:16 53.24048 -2.49734 3146 ft 207 kts 46°
2026-05-04 13:17 53.24985 -2.47925 2841 ft 204 kts 52°
2026-05-04 13:17 53.25834 -2.46111 2563 ft 191 kts 51°
2026-05-04 13:17 53.26648 -2.44461 2294 ft 177 kts 50°
2026-05-04 13:17 53.27401 -2.42924 2068 ft 165 kts 51°
2026-05-04 13:18 53.28112 -2.41464 1845 ft 161 kts 51°
2026-05-04 13:18 53.28821 -2.40012 1618 ft 162 kts 51°
2026-05-04 13:18 53.29527 -2.38566 1396 ft 156 kts 51°
2026-05-04 13:18 53.30191 -2.37203 1178 ft 146 kts 51°
2026-05-04 13:19 53.30788 -2.35964 979 ft 139 kts 51°
2026-05-04 13:19 53.31401 -2.34720 825 ft 140 kts 50°
2026-05-04 13:19 53.32025 -2.33484 634 ft 138 kts 50°
2026-05-04 13:19 53.32628 -2.32228 429 ft 139 kts 51°
2026-05-04 13:20 53.33235 -2.30983 265 ft 137 kts 50°
2026-05-04 13:20 53.33800 -2.29822 236 ft 110 kts 51°
2026-05-04 13:20 53.34135 -2.29127 237 ft 63 kts 51°
2026-05-04 13:20 53.34395 -2.28590 233 ft 57 kts 51°
2026-05-04 13:21 53.34575 -2.28261 240 ft 23 kts 34°
2026-05-04 13:21 53.34728 -2.28150 237 ft 25 kts 20°
2026-05-04 13:21 53.34893 -2.28028 238 ft 27 kts 43°
2026-05-04 13:21 53.34940 -2.27950 240 ft 2 kts 14°
2026-05-04 13:22 53.34960 -2.27973 236 ft 9 kts 324°
2026-05-04 13:22 53.35032 -2.28065 240 ft 14 kts 321°
2026-05-04 13:22 53.35121 -2.28184 237 ft 19 kts 328°
2026-05-04 13:22 53.35215 -2.28196 237 ft 0 kts
2026-05-04 13:23 53.35225 -2.28193 237 ft 3 kts
2026-05-04 13:23 53.35258 -2.28187 237 ft 11 kts
2026-05-04 13:23 53.35367 -2.28170 241 ft 17 kts
2026-05-04 13:23 53.35489 -2.28129 240 ft 20 kts 22°
2026-05-04 13:24 53.35556 -2.28041 242 ft 0 kts 50°
2026-05-04 13:24 53.35557 -2.28039 242 ft 2 kts 50°
2026-05-04 13:25 53.35708 -2.27881 251 ft 19 kts
2026-05-04 13:25 53.35848 -2.27857 259 ft 25 kts
2026-05-04 13:25 53.36008 -2.27924 261 ft 27 kts 320°
2026-05-04 13:25 53.36152 -2.28143 261 ft 29 kts 315°
2026-05-04 13:26 53.36297 -2.28390 261 ft 31 kts 315°
2026-05-04 13:26 53.36476 -2.28579 261 ft 31 kts 314°
2026-05-04 13:26 53.36600 -2.28774 261 ft 15 kts 344°
2026-05-04 13:26 53.36679 -2.28700 261 ft 14 kts 44°
2026-05-04 13:27 53.36669 -2.28579 261 ft 12 kts 131°
2026-05-04 13:27 53.36658 -2.28558 261 ft 0 kts 133°